Location: Albany
(35.0000°S, 118.0000°E)
Time: 19:26:44
(UTC-04:00)

Amateur Radio Satellites - All Passes

Search period start: 20 October 2017 18:56
Search period end: 21 October 2017 18:56
Location: Albany, 35.0000°S, 118.0000°E

Satellite Date Start Highest point End Downlink Frequencies (MHz)
Time Altitude Azimuth
XW-2A 20 Oct 19:14:14 19:17:34 78° 284° (WNW) 19:21:00 145.665 - 145.685
CUTE 1.7 + AOD 2 20 Oct 19:14:40 19:18:23 29° 276° (W) 19:22:10 437.475
UWE-3 20 Oct 19:18:21 19:22:34 88° 103° (ESE) 19:26:47 435.000/436.395/437.385
O/OREOS (USA 219) 20 Oct 19:18:24 19:22:15 28° 77° (ENE) 19:26:08 437.305
SEEDS 20 Oct 19:21:00 19:24:59 40° 278° (W) 19:29:03 437.485
Oscar 11 20 Oct 19:32:00 19:35:59 37° 107° (ESE) 19:40:03 .
YUBILEINY 20 Oct 19:40:21 19:48:49 48° 102° (ESE) 19:57:07 435.215
AAUSAT CUBESAT 2 20 Oct 19:44:01 19:48:06 51° 280° (W) 19:52:16 437.432
AO-73 20 Oct 20:09:23 20:13:25 49° 279° (W) 20:17:30 145.935
FO-29 20 Oct 20:12:26 20:17:18 26° 86° (E) 20:21:45 435.910
STRAND 1 20 Oct 20:13:04 20:17:56 43° 252° (WSW) 20:22:46 437.568
EO-88 20 Oct 20:18:08 20:18:52 10° 113° (ESE) 20:19:36 145.990 - 145.960
Max Valier Satellite 20 Oct 20:26:28 20:29:09 19° 110° (ESE) 20:31:53 145.860
HO-68 20 Oct 20:28:15 20:30:51 12° 270° (W) 20:33:27 435.675
ZACube-1 20 Oct 20:32:29 20:35:49 23° 276° (W) 20:39:11 437.345
AO-85 20 Oct 20:34:26 20:37:08 15° 135° (SE) 20:39:42 145.980
BEESAT 2 20 Oct 20:40:11 20:43:00 19° 128° (SE) 20:45:50 435.950
BEESAT 3 20 Oct 20:55:23 20:59:15 76° 298° (WNW) 21:03:08 437.485
O/OREOS (USA 219) 20 Oct 20:57:58 21:01:36 23° 242° (WSW) 21:05:15 437.305
DELFI C3 20 Oct 21:09:06 21:13:07 74° 281° (W) 21:17:12 145.870
Oscar 11 20 Oct 21:09:36 21:12:14 16° 273° (W) 21:14:53 .
YUBILEINY 20 Oct 21:37:45 21:45:10 32° 265° (W) 21:52:32 435.215
ESTCUBE 1 20 Oct 21:38:50 21:40:36 12° 115° (ESE) 21:42:23 437.505/2401.250
EO-88 20 Oct 21:48:35 21:52:03 41° 279° (W) 21:55:36 145.990 - 145.960
RS-15 20 Oct 21:49:11 21:51:48 11° 83° (E) 21:54:25 29.354- 29.394
UNISAT 6 20 Oct 21:54:35 21:59:02 75° 79° (ENE) 22:03:32 437.425
FO-29 20 Oct 21:57:07 22:02:26 34° 248° (WSW) 22:07:16 435.910
Max Valier Satellite 20 Oct 21:59:59 22:02:49 21° 275° (W) 22:05:42 145.860
TIGRISAT 20 Oct 22:09:17 22:13:44 81° 257° (WSW) 22:18:14 435.000
AO-85 20 Oct 22:13:30 22:18:01 57° 295° (WNW) 22:22:09 145.980
BEESAT 2 20 Oct 22:17:19 22:20:44 29° 293° (WNW) 22:24:09 435.950
LO-87 20 Oct 22:36:44 22:40:20 84° 104° (ESE) 22:43:59 145.935 - 145.965
PRISM 20 Oct 22:53:08 22:57:11 52° 254° (WSW) 23:01:10 437.425
POLYITAN 1 20 Oct 22:54:00 22:55:08 11° 88° (E) 22:56:17 437.675
VELOX 1 20 Oct 23:01:57 23:04:46 17° 113° (ESE) 23:07:36 145.980
ESTCUBE 1 20 Oct 23:12:22 23:16:49 58° 281° (W) 23:21:22 437.505/2401.250
QB50P2 20 Oct 23:12:23 23:15:41 21° 85° (E) 23:18:59 145.880/145.840
NANOSAT C BR1 20 Oct 23:15:27 23:18:25 18° 86° (E) 23:21:22 145.865
DUCHIFAT 1 20 Oct 23:25:42 23:28:56 21° 85° (E) 23:32:09 145.980
AIST 2D 20 Oct 23:43:59 23:47:27 43° 255° (WSW) 23:50:51 435.315
SPROUT 20 Oct 23:47:58 23:52:15 81° 103° (ESE) 23:56:35 437.525
RS-15 20 Oct 23:51:13 00:02:02 71° 66° (ENE) 00:12:53 29.354- 29.394
DX 1 21 Oct 00:06:15 00:09:29 20° 112° (ESE) 00:12:44 434.975-435.025
Oscar 19 21 Oct 00:19:20 00:20:41 11° 89° (E) 00:22:02 437.125/150
EO-79 21 Oct 00:22:06 00:26:19 58° 255° (WSW) 00:30:29 145.935-145.965
POLYITAN 1 21 Oct 00:27:00 00:31:09 51° 254° (WSW) 00:35:17 437.675
UKube-1 21 Oct 00:29:04 00:32:27 22° 111° (ESE) 00:35:51 .
VELOX 1 21 Oct 00:36:37 00:40:50 40° 279° (W) 00:45:06 145.980
50 SAT 21 Oct 00:45:25 00:48:43 72° 104° (ESE) 00:52:04 437.505
QB50P2 21 Oct 00:47:49 00:51:24 26° 251° (WSW) 00:54:57 145.880/145.840
NANOSAT C BR1 21 Oct 00:50:22 00:54:07 30° 251° (WSW) 00:57:51 145.865
Gurwin Techsat 1B 21 Oct 00:52:46 00:56:19 18° 87° (E) 00:59:50 435.225
DUCHIFAT 1 21 Oct 01:00:57 01:04:31 27° 251° (WSW) 01:08:05 145.980
BUGSAT 1 21 Oct 01:06:06 01:10:13 81° 79° (E) 01:14:20 437.445
DX 1 21 Oct 01:41:30 01:45:25 31° 278° (W) 01:49:23 434.975-435.025
ITUPSAT 1 21 Oct 01:47:53 01:51:26 21° 113° (ESE) 01:55:00 437.325
Oscar 19 21 Oct 01:55:11 02:00:27 73° 255° (WSW) 02:05:39 437.125/150
M-CUBED/EXP-1 PRIME 21 Oct 01:57:11 02:01:33 87° 247° (WSW) 02:05:33 437.505
BEESAT 21 Oct 02:02:19 02:06:28 30° 110° (ESE) 02:10:39 436.000
UKube-1 21 Oct 02:04:35 02:08:17 27° 277° (W) 02:12:01 .
RS-15 21 Oct 02:05:52 02:15:14 32° 223° (SW) 02:24:48 29.354- 29.394
NO-84 21 Oct 02:14:13 02:17:06 82° 226° (SW) 02:20:02 435.350 FM
Gurwin Techsat 1B 21 Oct 02:31:18 02:36:28 49° 252° (WSW) 02:41:35 435.225
ITAMSAT 1 21 Oct 02:31:44 02:33:46 12° 88° (E) 02:35:49 435.822/435.867
MOZHAYETS 4 21 Oct 02:49:10 02:53:44 75° 282° (WNW) 02:58:22
CUBESAT XI-V 21 Oct 03:02:28 03:06:33 30° 109° (ESE) 03:10:42 437.345
AO-7 21 Oct 03:10:19 03:18:23 48° 79° (ENE) 03:26:19 .
ITUPSAT 1 21 Oct 03:24:37 03:28:59 35° 278° (W) 03:33:23 437.325
BEESAT 21 Oct 03:40:21 03:44:10 24° 276° (W) 03:48:02 436.000
ITAMSAT 1 21 Oct 04:08:26 04:13:38 66° 254° (WSW) 04:18:46 435.822/435.867
KKS-1 21 Oct 04:11:50 04:16:10 49° 107° (ESE) 04:20:33 437.445
RS-15 21 Oct 04:28:59 04:32:52 12° 189° (S) 04:36:47 29.354- 29.394
DOVE 4 21 Oct 04:40:06 04:43:57 28° 84° (E) 04:47:37 437.250
CUBESAT XI-V 21 Oct 04:40:11 04:43:52 23° 275° (W) 04:47:36 437.345
STARS 21 Oct 04:42:51 04:47:01 41° 107° (ESE) 04:51:13 437.465
AO-7 21 Oct 05:03:26 05:10:49 36° 242° (WSW) 05:18:09 .
XW-2F 21 Oct 05:09:30 05:10:24 11° 88° (E) 05:11:20 145.980 - 146.000
LilacSat-2 21 Oct 05:14:50 05:17:14 15° 87° (E) 05:19:36 437.200
NUDT-PHONESAT 21 Oct 05:19:55 05:20:23 10° 88° (E) 05:20:51 437.300
XW-2D 21 Oct 05:20:51 05:23:32 18° 86° (E) 05:26:10 145.860 - 145.880
SO-50 21 Oct 05:21:39 05:26:02 36° 67° (ENE) 05:30:26 436.795
O/OREOS (USA 219) 21 Oct 05:31:13 05:35:17 32° 116° (ESE) 05:39:20 437.305
XW-2B 21 Oct 05:33:50 05:37:05 24° 84° (E) 05:40:17 145.730 - 145.750
STRAND 1 21 Oct 05:47:53 05:51:35 20° 114° (ESE) 05:55:16 437.568
KKS-1 21 Oct 05:50:56 05:52:57 13° 273° (W) 05:54:58 437.445
JUGNU 21 Oct 05:51:24 05:55:03 17° 7° (N) 05:58:43 437.505
XW-2C 21 Oct 05:56:39 06:00:29 50° 80° (E) 06:04:15 145.795 - 145.815
PCSat 21 Oct 06:03:44 06:05:43 12° 78° (ENE) 06:07:44 145.827
HO-68 21 Oct 06:07:51 06:13:08 21° 86° (E) 06:18:21 435.675
DOVE 4 21 Oct 06:18:11 06:21:24 20° 248° (WSW) 06:24:31 437.250
STARS 21 Oct 06:21:01 06:23:30 15° 273° (W) 06:25:58 437.465
CUTE-I 21 Oct 06:22:25 06:27:48 71° 78° (ENE) 06:33:07 437.470
FO-29 21 Oct 06:23:01 06:25:55 12° 122° (ESE) 06:28:45 435.910
CUBEBUG 2 21 Oct 06:35:42 06:38:20 16° 86° (E) 06:40:59 437.445
KAITUO 1B 21 Oct 06:37:45 06:41:34 61° 255° (WSW) 06:45:21 145.475/437.950
XW-2F 21 Oct 06:40:59 06:44:42 42° 254° (WSW) 06:48:21 145.980 - 146.000
RS-15 21 Oct 06:44:48 06:52:10 19° 151° (SSE) 06:59:41 29.354- 29.394
LilacSat-2 21 Oct 06:48:02 06:51:31 30° 252° (WSW) 06:54:57 437.200
NUDT-PHONESAT 21 Oct 06:50:47 06:54:25 42° 254° (WSW) 06:58:00 437.300
XW-2D 21 Oct 06:54:21 06:57:39 26° 252° (WSW) 07:00:55 145.860 - 145.880
CUTE 1.7 + AOD 2 21 Oct 07:02:02 07:06:21 60° 79° (E) 07:10:36 437.475
SO-50 21 Oct 07:02:39 07:06:33 24° 231° (SW) 07:10:29 436.795
SEEDS 21 Oct 07:07:47 07:11:52 40° 82° (E) 07:15:52 437.485
XW-2B 21 Oct 07:08:15 07:11:03 19° 250° (WSW) 07:13:51 145.730 - 145.750
O/OREOS (USA 219) 21 Oct 07:11:10 07:14:26 20° 281° (W) 07:17:41 437.305
UWE-3 21 Oct 07:11:20 07:14:51 23° 84° (E) 07:18:23 435.000/436.395/437.385
STRAND 1 21 Oct 07:25:32 07:30:23 42° 279° (W) 07:35:18 437.568
AAUSAT CUBESAT 2 21 Oct 07:29:30 07:33:14 30° 83° (E) 07:36:53 437.432
JUGNU 21 Oct 07:39:25 07:43:21 18° 357° (N) 07:47:17 437.505
PCSat 21 Oct 07:43:00 07:48:24 73° 243° (WSW) 07:53:51 145.827
ISS 21 Oct 07:44:52 07:46:48 15° 53° (NE) 07:48:43 437.550
HO-68 21 Oct 07:54:08 08:01:13 61° 251° (WSW) 08:08:14 435.675
AO-73 21 Oct 08:00:04 08:04:14 38° 82° (E) 08:08:26 145.935
FO-29 21 Oct 08:01:55 08:09:45 70° 106° (ESE) 08:17:14 435.910
CUTE-I 21 Oct 08:04:45 08:07:09 13° 242° (WSW) 08:09:34 437.470
CUBEBUG 2 21 Oct 08:10:59 08:15:01 38° 253° (WSW) 08:19:08 437.445
XW-2A 21 Oct 08:11:25 08:14:47 44° 255° (WSW) 08:18:05 145.665 - 145.685
SRMSAT 21 Oct 08:16:27 08:19:50 15° 9° (N) 08:23:13 437.500
ZACube-1 21 Oct 08:22:26 08:26:54 81° 78° (ENE) 08:31:25 437.345
YUBILEINY 21 Oct 08:36:25 08:45:05 62° 89° (E) 08:53:48 435.215
CUTE 1.7 + AOD 2 21 Oct 08:40:46 08:41:35 10° 245° (WSW) 08:42:23 437.475
nSIGHT-1 21 Oct 08:44:31 08:47:47 90° 45° (NE) 08:51:06 .
SEEDS 21 Oct 08:44:45 08:47:08 15° 247° (WSW) 08:49:31 437.485
UWE-3 21 Oct 08:47:30 08:51:13 27° 251° (WSW) 08:54:59 435.000/436.395/437.385
NO-84 21 Oct 08:49:55 08:51:56 15° 144° (SE) 08:54:01 435.350 FM
UNISAT 6 21 Oct 08:50:07 08:54:12 41° 106° (ESE) 08:58:17 437.425
DELFI C3 21 Oct 08:50:13 08:52:53 17° 86° (E) 08:55:33 145.870
RS-15 21 Oct 08:56:11 09:07:28 62° 124° (SE) 09:19:14 29.354- 29.394
Oscar 11 21 Oct 08:57:58 09:02:22 66° 256° (WSW) 09:06:43 .
TIGRISAT 21 Oct 09:04:29 09:08:44 56° 105° (ESE) 09:12:58 435.000
AAUSAT CUBESAT 2 21 Oct 09:05:28 09:08:25 19° 249° (WSW) 09:11:20 437.432
ISS 21 Oct 09:19:46 09:22:59 43° 218° (SW) 09:26:13 437.550
EO-88 21 Oct 09:20:48 09:23:35 20° 85° (E) 09:26:20 145.990 - 145.960
JUGNU 21 Oct 09:29:13 09:31:38 12° 347° (NNW) 09:34:02 437.505
PCSat 21 Oct 09:32:00 09:32:44 10° 225° (SW) 09:33:29 145.827
Max Valier Satellite 21 Oct 09:32:00 09:35:36 40° 82° (E) 09:39:10 145.860
AO-73 21 Oct 09:37:16 09:40:08 17° 248° (WSW) 09:43:01 145.935
PRISM 21 Oct 09:38:17 09:42:26 66° 104° (ESE) 09:46:39 437.425
FO-29 21 Oct 09:49:25 09:55:04 21° 273° (W) 10:00:37 435.910
QB50P2 21 Oct 10:03:43 10:04:57 11° 115° (ESE) 10:06:12 145.880/145.840
SRMSAT 21 Oct 10:04:17 10:08:17 18° 359° (N) 10:12:17 437.500
AIST 2D 21 Oct 10:14:33 10:17:46 34° 106° (ESE) 10:21:04 435.315
DUCHIFAT 1 21 Oct 10:16:35 10:17:23 10° 115° (ESE) 10:18:12 145.980
nSIGHT-1 21 Oct 10:22:57 10:24:30 13° 206° (SSW) 10:26:03 .
DELFI C3 21 Oct 10:24:11 10:27:38 28° 252° (WSW) 10:31:02 145.870
NO-84 21 Oct 10:25:58 10:29:27 58° 309° (NW) 10:33:13 435.350 FM
UNISAT 6 21 Oct 10:28:50 10:31:04 14° 273° (W) 10:33:18 437.425
YUBILEINY 21 Oct 10:35:25 10:42:23 25° 251° (WSW) 10:49:26 435.215
BEESAT 3 21 Oct 10:41:49 10:45:17 35° 66° (ENE) 10:48:46 437.485
AO-85 21 Oct 10:46:50 10:48:14 11° 75° (ENE) 10:49:40 145.980
EO-88 21 Oct 10:54:14 10:57:06 21° 251° (WSW) 10:59:56 145.990 - 145.960
Max Valier Satellite 21 Oct 11:07:49 11:09:00 11° 247° (WSW) 11:10:09 145.860
ESTCUBE 1 21 Oct 11:08:10 11:12:27 37° 82° (E) 11:16:40 437.505/2401.250
RS-15 21 Oct 11:09:22 11:19:14 35° 286° (WNW) 11:29:32 29.354- 29.394
EO-79 21 Oct 11:10:37 11:14:48 64° 105° (ESE) 11:19:01 145.935-145.965
POLYITAN 1 21 Oct 11:15:36 11:19:48 74° 103° (ESE) 11:24:04 437.675
Oscar 19 21 Oct 11:32:49 11:35:02 13° 117° (ESE) 11:37:16 437.125/150
QB50P2 21 Oct 11:36:04 11:40:13 54° 280° (W) 11:44:24 145.880/145.840
SPROUT 21 Oct 11:37:51 11:40:43 17° 86° (E) 11:43:35 437.525
NANOSAT C BR1 21 Oct 11:38:09 11:42:21 66° 280° (W) 11:46:34 145.865
LO-87 21 Oct 11:39:57 11:43:26 46° 255° (WSW) 11:46:51 145.935 - 145.965
DUCHIFAT 1 21 Oct 11:48:22 11:52:29 56° 281° (W) 11:56:40 145.980
AIST 2D 21 Oct 11:50:15 11:51:04 11° 272° (W) 11:51:53 435.315
BUGSAT 1 21 Oct 11:52:27 11:56:08 33° 108° (ESE) 11:59:51 437.445
SRMSAT 21 Oct 11:53:39 11:56:44 14° 349° (N) 11:59:47 437.500
BEESAT 2 21 Oct 12:04:30 12:08:22 83° 242° (WSW) 12:12:16 435.950
Gurwin Techsat 1B 21 Oct 12:10:35 12:14:34 22° 114° (ESE) 12:18:35 435.225
BEESAT 3 21 Oct 12:20:35 12:22:56 16° 230° (SW) 12:25:16 437.485
AO-85 21 Oct 12:22:38 12:28:00 83° 241° (WSW) 12:33:23 145.980
VELOX 1 21 Oct 12:29:35 12:33:55 47° 80° (E) 12:38:09 145.980
M-CUBED/EXP-1 PRIME 21 Oct 12:38:22 12:42:47 66° 109° (ESE) 12:47:28 437.505
ESTCUBE 1 21 Oct 12:45:48 12:48:54 18° 247° (WSW) 12:52:00 437.505/2401.250
Oscar 19 21 Oct 13:08:32 13:13:40 70° 282° (WNW) 13:18:54 437.125/150
SPROUT 21 Oct 13:12:48 13:16:39 32° 252° (WSW) 13:20:28 437.525
BUGSAT 1 21 Oct 13:29:08 13:31:33 15° 274° (W) 13:33:58 437.445
DX 1 21 Oct 13:32:19 13:36:39 56° 79° (E) 13:40:55 434.975-435.025
50 SAT 21 Oct 13:39:29 13:42:48 76° 256° (WSW) 13:46:04 437.505
ITAMSAT 1 21 Oct 13:46:17 13:49:13 15° 116° (ESE) 13:52:09 435.822/435.867
Gurwin Techsat 1B 21 Oct 13:49:08 13:54:09 42° 279° (W) 13:59:16 435.225
UKube-1 21 Oct 13:53:57 13:58:17 62° 79° (ENE) 14:02:33 .
SO-50 21 Oct 13:57:03 13:59:52 16° 133° (SE) 14:02:39 436.795
AO-7 21 Oct 14:05:27 14:13:22 50° 114° (ESE) 14:21:23 .
AO-85 21 Oct 14:06:48 14:09:13 13° 224° (SW) 14:11:38 145.980
VELOX 1 21 Oct 14:07:37 14:09:53 14° 246° (WSW) 14:12:07 145.980
M-CUBED/EXP-1 PRIME 21 Oct 14:16:44 14:17:35 10° 275° (W) 14:18:25 437.505
MOZHAYETS 4 21 Oct 14:47:38 14:51:51 32° 83° (E) 14:56:02
DX 1 21 Oct 15:10:46 15:12:17 12° 245° (WSW) 15:13:46 434.975-435.025
nSIGHT-1 21 Oct 15:14:33 15:17:19 24° 146° (SSE) 15:20:03 .
ITAMSAT 1 21 Oct 15:22:57 15:28:07 60° 281° (WNW) 15:33:20 435.822/435.867
ITUPSAT 1 21 Oct 15:27:44 15:32:36 76° 78° (ENE) 15:37:24 437.325
UKube-1 21 Oct 15:32:56 15:33:42 10° 244° (WSW) 15:34:28 .
SO-50 21 Oct 15:36:07 15:40:44 59° 296° (WNW) 15:45:13 436.795
DOVE 4 21 Oct 15:41:23 15:45:40 25° 110° (ESE) 15:49:52 437.250
BEESAT 21 Oct 15:42:28 15:47:18 73° 255° (WSW) 15:52:05 436.000
ISS 21 Oct 15:50:09 15:53:23 44° 141° (SE) 15:56:34 437.550
AO-7 21 Oct 15:58:55 16:06:13 33° 278° (W) 16:13:38 .
KKS-1 21 Oct 16:08:09 16:09:50 12° 88° (E) 16:11:31 437.445
MOZHAYETS 4 21 Oct 16:25:14 16:28:45 21° 248° (WSW) 16:32:16
PCSat 21 Oct 16:34:15 16:39:28 44° 121° (ESE) 16:44:38 145.827
XW-2C 21 Oct 16:35:40 16:38:00 16° 111° (ESE) 16:40:21 145.795 - 145.815
HO-68 21 Oct 16:36:39 16:38:59 12° 125° (SE) 16:41:20 435.675
CUBESAT XI-V 21 Oct 16:38:44 16:43:30 71° 256° (WSW) 16:48:11 437.345
nSIGHT-1 21 Oct 16:50:43 16:53:36 28° 311° (NW) 16:56:27 .
ITUPSAT 1 21 Oct 17:08:57 17:09:43 10° 242° (WSW) 17:10:29 437.325
KAITUO 1B 21 Oct 17:14:07 17:17:32 34° 107° (ESE) 17:21:01 145.475/437.950
XW-2F 21 Oct 17:17:51 17:21:31 51° 105° (ESE) 17:25:17 145.980 - 146.000
DOVE 4 21 Oct 17:18:18 17:23:06 34° 277° (W) 17:27:50 437.250
LilacSat-2 21 Oct 17:25:40 17:29:29 78° 102° (ESE) 17:33:23 437.200
NUDT-PHONESAT 21 Oct 17:25:58 17:29:31 46° 105° (ESE) 17:33:09 437.300
ISS 21 Oct 17:27:45 17:29:33 14° 307° (NW) 17:31:20 437.550
XW-2D 21 Oct 17:31:10 17:34:57 89° 102° (ESE) 17:38:51 145.860 - 145.880
CUTE-I 21 Oct 17:40:43 17:46:07 84° 104° (ESE) 17:51:34 437.470
KKS-1 21 Oct 17:42:17 17:46:39 51° 253° (WSW) 17:50:56 437.445
XW-2B 21 Oct 17:44:43 17:48:29 63° 280° (W) 17:52:19 145.730 - 145.750
CUTE 1.7 + AOD 2 21 Oct 17:51:27 17:55:05 27° 109° (ESE) 17:58:46 437.475
SEEDS 21 Oct 17:56:42 17:59:44 19° 111° (ESE) 18:02:46 437.485
UWE-3 21 Oct 18:07:04 18:08:36 12° 114° (ESE) 18:10:07 435.000/436.395/437.385
XW-2C 21 Oct 18:08:33 18:11:54 29° 277° (W) 18:15:17 145.795 - 145.815
STARS 21 Oct 18:11:14 18:15:36 62° 254° (WSW) 18:19:56 437.465
AAUSAT CUBESAT 2 21 Oct 18:17:31 18:19:40 14° 113° (ESE) 18:21:49 437.432
HO-68 21 Oct 18:18:17 18:25:26 73° 108° (ESE) 18:32:39 435.675
PCSat 21 Oct 18:18:30 18:22:30 21° 286° (WNW) 18:26:28 145.827
XW-2A 21 Oct 18:39:07 18:42:04 29° 107° (ESE) 18:45:04 145.665 - 145.685
KAITUO 1B 21 Oct 18:49:54 18:51:36 13° 273° (W) 18:53:19 145.475/437.950
